FW4383 Weather Reports


Display with metric or nautical units.
time (UTC)temp
F
wind
direction
speed
MPH
gust
MPH
rain 1hr
in
rain 24hr
in
rain mn
in
humidity
%
barometer
mb
20260902061610 63 267 8.0 18.0 0.00 0.00 0.00 70 1013.7
20260902060036 63 270 9.0 21.0 0.00 0.00 0.00 70 1013.8
20260902054535 63 269 9.0 17.0 0.00 0.00 0.00 69 1013.7
20260902053036 63 269 9.0 18.0 0.00 0.00 0.00 68 1013.8
20260902051535 63 272 10.0 24.0 0.00 0.00 0.00 68 1013.6
20260902050035 64 273 11.0 22.0 0.00 0.00 0.00 67 1013.3
20260902044532 64 268 10.0 22.0 0.00 0.00 0.00 66 1013.2
20260902041536 64 262 9.0 19.0 0.00 0.00 0.00 65 1013.0
20260902040035 64 277 7.0 17.0 0.00 0.00 0.00 64 1012.9
20260902034531 65 264 8.0 18.0 0.00 0.00 0.00 64 1012.7
20260902033034 65 274 7.0 15.0 0.00 0.00 0.00 65 1012.6
20260902031533 65 271 8.0 17.0 0.00 0.00 0.00 65 1012.5
20260902030031 65 267 10.0 22.0 0.00 0.00 0.00 66 1012.6
20260902021537 65 261 8.0 18.0 0.00 0.00 0.00 63 1012.4
20260902020035 66 266 8.0 15.0 0.00 0.00 0.00 62 1012.3
20260902014535 67 262 10.0 21.0 0.00 0.00 0.00 60 1012.3
20260902013038 67 258 9.0 21.0 0.00 0.00 0.00 59 1012.2
20260902011535 68 258 10.0 21.0 0.00 0.00 0.00 58 1012.1
20260902010035 69 259 8.0 20.0 0.00 0.00 0.00 57 1012.0
20260902004651 68 251 9.0 20.0 0.00 0.00 0.00 58 1011.9
20260902003034 68 262 11.0 22.0 0.00 0.00 0.00 58 1011.9
20260902001751 0 0 0.0 0.0 0.00 0.00 0.00 100
20260902000034 67 273 11.0 24.0 0.00 0.00 0.00 61 1011.8
20260901234533 67 273 10.0 24.0 0.00 0.00 0.00 61 1011.8
20260901231537 68 273 11.0 22.0 0.00 0.00 0.00 60 1011.8
20260901230035 68 265 12.0 25.0 0.00 0.00 0.00 60 1011.9
20260901224537 68 268 12.0 20.0 0.00 0.00 0.00 61 1011.8
20260901221534 66 269 13.0 23.0 0.00 0.00 0.00 63 1011.4
20260901213035 68 277 13.0 25.0 0.00 0.00 0.00 60 1011.3
20260901211648 68 269 15.0 27.0 0.00 0.00 0.00 60 1011.4
20260901210031 68 279 15.0 31.0 0.00 0.00 0.00 59 1011.4
20260901204534 68 269 14.0 27.0 0.00 0.00 0.00 59 1011.5
20260901200035 67 275 12.0 24.0 0.00 0.00 0.00 60 1011.8
20260901193032 67 272 12.0 27.0 0.00 0.00 0.00 62 1012.4
20260901191534 67 278 12.0 26.0 0.00 0.00 0.00 63 1012.6
20260901190036 66 278 12.0 26.0 0.00 0.00 0.00 63 1012.7
20260901184538 66 273 11.0 20.0 0.00 0.00 0.00 64 1012.7
20260901183035 66 273 12.0 24.0 0.00 0.00 0.00 65 1012.9
20260901181536 65 279 9.0 19.0 0.00 0.00 0.00 66 1013.0
20260901174533 64 266 11.0 22.0 0.00 0.00 0.00 69 1013.2
20260901173032 64 272 8.0 18.0 0.00 0.00 0.00 70 1013.2
20260901171534 62 275 11.0 21.0 0.00 0.00 0.00 72 1013.2
20260901170036 62 272 10.0 25.0 0.00 0.00 0.00 74 1013.2
20260901164608 61 269 10.0 21.0 0.00 0.00 0.00 75 1013.2
20260901163037 61 272 10.0 21.0 0.00 0.00 0.00 75 1013.2
20260901161617 61 267 11.0 23.0 0.00 0.00 0.00 75 1013.2
20260901160031 60 269 8.0 18.0 0.00 0.00 0.00 76 1013.0
20260901154534 60 269 8.0 17.0 0.00 0.00 0.00 77 1013.0
20260901153037 59 270 6.0 14.0 0.00 0.00 0.00 78 1013.1
20260901151536 59 267 6.0 13.0 0.00 0.00 0.00 78 1013.1
20260901144535 59 256 6.0 12.0 0.00 0.00 0.00 79 1012.9
20260901143035 59 255 7.0 13.0 0.00 0.00 0.00 79 1012.8
20260901140033 60 264 7.0 13.0 0.00 0.00 0.00 78 1012.5
20260901134641 60 259 7.0 17.0 0.00 0.00 0.00 77 1012.4
20260901133034 60 269 7.0 19.0 0.00 0.00 0.00 76 1012.2
20260901131535 60 258 7.0 16.0 0.00 0.00 0.00 76 1012.1
20260901124534 61 241 6.0 11.0 0.00 0.00 0.00 75 1011.8
20260901123035 61 251 6.0 14.0 0.00 0.00 0.00 74 1011.8
20260901121649 62 252 8.0 16.0 0.00 0.00 0.00 73 1011.8
20260901120034 62 259 9.0 18.0 0.00 0.00 0.00 73 1011.8
20260901114606 62 259 8.0 20.0 0.00 0.00 0.00 71 1011.7
20260901113030 63 251 8.0 17.0 0.00 0.00 0.00 70 1011.7
20260901111537 63 263 9.0 22.0 0.00 0.00 0.00 69 1011.5
20260901110036 64 265 10.0 20.0 0.00 0.00 0.00 69 1011.4
20260901101535 65 278 11.0 18.0 0.00 0.00 0.00 66 1011.3
20260901100035 66 269 9.0 18.0 0.00 0.00 0.00 65 1011.1
20260901094532 66 267 9.0 18.0 0.00 0.00 0.00 65 1011.2
20260901093034 66 256 6.0 18.0 0.00 0.00 0.00 65 1011.3
20260901091607 66 249 5.0 12.0 0.00 0.00 0.00 65 1011.2
20260901090037 64 239 4.0 13.0 0.00 0.00 0.00 70 1011.0
20260901084530 56 188 2.0 11.0 0.00 0.00 0.00 76 1011.2
20260901083034 55 214 1.0 8.0 0.00 0.00 0.00 78 1011.2
20260901081536 53 185 1.0 5.0 0.00 0.00 0.00 81 1011.3
20260901080035 53 221 1.0 5.0 0.00 0.00 0.00 82 1011.1
20260901074536 53 252 0.0 5.0 0.00 0.00 0.00 80 1011.0
20260901073033 54 136 0.0 3.0 0.00 0.00 0.00 79 1010.9
20260901071530 54 265 0.0 4.0 0.00 0.00 0.00 77 1010.8
20260901070145 55 270 0.0 0.0 0.00 0.00 0.00 75 1010.7
20260901064535 56 270 0.0 0.0 0.00 0.00 0.00 74 1010.8
20260901063031 56 267 0.0 4.0 0.00 0.00 0.00 74 1010.9